TimeEDT,TemperatureF,Dew PointF,Humidity,Sea Level PressureIn,VisibilityMPH,Wind Direction,Wind SpeedMPH,Gust SpeedMPH,PrecipitationIn,Events,Conditions,WindDirDegrees,DateUTC
12:54 AM,68.0,66.9,96,29.87,-9999.0,SW,13.8,-,N/A,,Unknown,220,2013-08-31 04:54:00
1:54 AM,66.9,66.0,97,29.86,-9999.0,SSW,10.4,-,N/A,,Unknown,210,2013-08-31 05:54:00
2:54 AM,66.9,66.0,97,29.85,-9999.0,SSW,11.5,-,N/A,,Unknown,210,2013-08-31 06:54:00
3:54 AM,66.9,66.9,100,29.84,-9999.0,South,11.5,-,N/A,,Unknown,190,2013-08-31 07:54:00
4:54 AM,68.0,68.0,100,29.84,-9999.0,SSW,12.7,-,N/A,,Unknown,200,2013-08-31 08:54:00
5:54 AM,69.1,68.0,96,29.84,-9999.0,SSW,12.7,-,N/A,,Unknown,200,2013-08-31 09:54:00
6:54 AM,69.1,68.0,96,29.87,-9999.0,West,6.9,-,0.04,,Unknown,280,2013-08-31 10:54:00
7:54 AM,70.0,69.1,97,29.86,-9999.0,South,8.1,-,N/A,,Unknown,180,2013-08-31 11:54:00
8:54 AM,71.1,70.0,96,29.87,-9999.0,SSW,6.9,-,N/A,,Unknown,210,2013-08-31 12:54:00
9:54 AM,73.0,70.0,90,29.88,-9999.0,SW,6.9,-,N/A,,Unknown,220,2013-08-31 13:54:00
10:54 AM,75.0,70.0,84,29.87,-9999.0,SW,8.1,-,N/A,,Unknown,230,2013-08-31 14:54:00
11:54 AM,77.0,70.0,79,29.86,-9999.0,SW,10.4,-,N/A,,Unknown,230,2013-08-31 15:54:00
12:54 PM,78.1,70.0,76,29.86,-9999.0,SSW,9.2,-,N/A,,Unknown,210,2013-08-31 16:54:00
1:54 PM,77.0,71.1,82,29.86,-9999.0,SW,10.4,-,N/A,,Unknown,220,2013-08-31 17:54:00
2:54 PM,79.0,71.1,77,29.84,-9999.0,South,12.7,-,N/A,,Unknown,190,2013-08-31 18:54:00
3:54 PM,78.1,71.1,79,29.84,-9999.0,SSW,9.2,-,N/A,,Unknown,200,2013-08-31 19:54:00
4:54 PM,75.0,71.1,87,29.84,-9999.0,South,11.5,-,N/A,,Unknown,180,2013-08-31 20:54:00
5:54 PM,73.0,70.0,90,29.84,-9999.0,South,12.7,20.7,N/A,,Unknown,180,2013-08-31 21:54:00
6:54 PM,72.0,70.0,93,29.84,-9999.0,South,13.8,-,N/A,,Unknown,190,2013-08-31 22:54:00
7:54 PM,72.0,70.0,93,29.84,-9999.0,South,12.7,-,N/A,,Unknown,190,2013-08-31 23:54:00
8:54 PM,71.1,70.0,96,29.86,-9999.0,SSW,13.8,-,N/A,,Unknown,200,2013-09-01 00:54:00
9:54 PM,71.1,70.0,96,29.86,-9999.0,South,12.7,19.6,N/A,,Unknown,190,2013-09-01 01:54:00
10:54 PM,71.1,70.0,96,29.85,-9999.0,South,13.8,21.9,N/A,,Unknown,190,2013-09-01 02:54:00
11:54 PM,71.1,69.1,93,29.86,-9999.0,SSW,15.0,-,N/A,,Unknown,210,2013-09-01 03:54:00